User: anonymous   Login
Location: Unspecified
(0.0000°N, 0.0000°E)
Time: 22:30:40
(UTC+00:00)
Language:

NOSS 3-2 (C) - Orbit

View from above orbital plane
View from above orbital plane
View from above satellite
View from above satellite

Ground track
Ground track

The orbit is defined by the following mean orbital elements,

1 28097U 03054C   26002.79286449 0.00000300  00000-0  19968-3 0    09
2 28097  63.3900 251.9002 0577249   6.3998 353.6002 13.41262763    01
Epoch (UTC): 02 January 2026 19:01:43
Eccentricity: 0.0577249
inclination: 63.3900°
perigee height: 672 km
apogee height: 1536 km
right ascension of ascending node: 251.9002°
argument of perigee: 6.3998°
revolutions per day: 13.41262763
mean anomaly at epoch: 353.6002°

The dashed part of the orbit path shows where the satellite is in the earth's shadow,  

DLR